Year,Month,Day,Hour,Minute,Value (Times are PST for temperature in C)
2020,10,18,14,22,12.20
2020,10,18,14,23,12.20
2020,10,18,14,24,12.20
2020,10,18,14,25,12.20
2020,10,18,14,26,12.30
2020,10,18,14,27,12.30
2020,10,18,14,28,12.50
2020,10,18,14,29,12.60
2020,10,18,14,30,12.70
2020,10,18,14,31,12.80
2020,10,18,14,32,12.80
2020,10,18,14,33,12.90
2020,10,18,14,34,13.10
2020,10,18,14,35,13.20
2020,10,18,14,36,13.30
2020,10,18,14,37,13.40
2020,10,18,14,38,13.50
2020,10,18,14,39,13.50
2020,10,18,14,40,13.50
2020,10,18,14,41,13.50
2020,10,18,14,42,13.60
2020,10,18,14,43,13.60
2020,10,18,14,44,13.70
2020,10,18,14,45,13.70
2020,10,18,14,46,13.80
2020,10,18,14,47,13.80
2020,10,18,14,48,13.90
2020,10,18,14,49,13.90
2020,10,18,14,50,13.90
2020,10,18,14,51,13.90
2020,10,18,14,52,13.90
2020,10,18,14,53,14.00
2020,10,18,14,54,14.00
2020,10,18,14,55,14.00
2020,10,18,14,56,14.10
2020,10,18,14,57,14.10
2020,10,18,14,58,14.20
2020,10,18,14,59,14.30
2020,10,18,15,00,14.30
2020,10,18,15,01,14.40
2020,10,18,15,02,14.40
2020,10,18,15,03,14.40
2020,10,18,15,04,14.40
2020,10,18,15,05,14.40
2020,10,18,15,06,14.40
2020,10,18,15,07,14.40
2020,10,18,15,08,14.50
2020,10,18,15,09,14.40
2020,10,18,15,10,14.30
2020,10,18,15,11,14.20
2020,10,18,15,12,14.10
2020,10,18,15,13,14.00
2020,10,18,15,14,14.00
2020,10,18,15,15,13.90
2020,10,18,15,16,13.90
2020,10,18,15,17,13.80
2020,10,18,15,18,13.70
2020,10,18,15,19,13.70
2020,10,18,15,20,13.70
2020,10,18,15,21,13.60
2020,10,18,15,22,13.50
2020,10,18,15,23,13.50
2020,10,18,15,24,13.40
2020,10,18,15,25,13.30
2020,10,18,15,26,13.20
2020,10,18,15,27,13.20
2020,10,18,15,28,13.10
2020,10,18,15,29,13.10
2020,10,18,15,30,13.00
2020,10,18,15,31,13.00
2020,10,18,15,32,12.90
2020,10,18,15,33,12.80
2020,10,18,15,34,12.80
2020,10,18,15,35,12.80
2020,10,18,15,36,12.80
2020,10,18,15,37,12.80
2020,10,18,15,38,12.80
2020,10,18,15,39,12.70
2020,10,18,15,40,12.70
2020,10,18,15,41,12.70
2020,10,18,15,42,12.70
2020,10,18,15,43,12.70
2020,10,18,15,44,12.80
2020,10,18,15,45,12.80
2020,10,18,15,46,12.80
2020,10,18,15,47,12.80
2020,10,18,15,48,12.80
2020,10,18,15,49,12.80
2020,10,18,15,50,12.80
2020,10,18,15,51,12.80
2020,10,18,15,52,12.80
2020,10,18,15,53,12.80
2020,10,18,15,54,12.80
2020,10,18,15,55,12.80
2020,10,18,15,56,12.80
2020,10,18,15,57,12.80
2020,10,18,15,58,12.80
2020,10,18,15,59,12.70
2020,10,18,16,00,12.70
2020,10,18,16,01,12.70
2020,10,18,16,02,12.70
2020,10,18,16,03,12.70
2020,10,18,16,04,12.70
2020,10,18,16,05,12.70
2020,10,18,16,06,12.60
2020,10,18,16,07,12.60
2020,10,18,16,08,12.50
2020,10,18,16,09,12.50
2020,10,18,16,10,12.50
2020,10,18,16,11,12.50
2020,10,18,16,12,12.50
2020,10,18,16,13,12.50
2020,10,18,16,14,12.50
2020,10,18,16,15,12.50
2020,10,18,16,16,12.40
2020,10,18,16,17,12.40
2020,10,18,16,18,12.40
2020,10,18,16,19,12.40
2020,10,18,16,20,12.40
2020,10,18,16,21,12.30
2020,10,18,16,22,12.30
2020,10,18,16,23,12.30
2020,10,18,16,24,12.30
2020,10,18,16,25,12.30
2020,10,18,16,26,12.30
2020,10,18,16,27,12.30
2020,10,18,16,28,12.30
2020,10,18,16,29,12.30
2020,10,18,16,30,12.30
2020,10,18,16,31,12.30
2020,10,18,16,32,12.30
2020,10,18,16,33,12.30
2020,10,18,16,34,12.30
2020,10,18,16,35,12.30
2020,10,18,16,36,12.30
2020,10,18,16,37,12.20
2020,10,18,16,38,12.20
2020,10,18,16,39,12.20
2020,10,18,16,40,12.20
2020,10,18,16,41,12.10
2020,10,18,16,42,12.10
2020,10,18,16,43,12.10
2020,10,18,16,44,12.10
2020,10,18,16,45,12.10
2020,10,18,16,46,12.10
2020,10,18,16,47,12.10
2020,10,18,16,48,12.10
2020,10,18,16,49,12.10
2020,10,18,16,50,12.10
2020,10,18,16,51,12.10
2020,10,18,16,52,12.10
2020,10,18,16,53,12.10
2020,10,18,16,54,12.10
2020,10,18,16,55,12.10
2020,10,18,16,56,12.10
2020,10,18,16,57,12.10
2020,10,18,16,58,12.10
2020,10,18,16,59,12.10
2020,10,18,17,00,12.00
2020,10,18,17,01,12.00
2020,10,18,17,02,12.00
2020,10,18,17,03,12.00
2020,10,18,17,04,12.00
2020,10,18,17,05,12.00
2020,10,18,17,06,12.00
2020,10,18,17,07,12.00
2020,10,18,17,08,12.00
2020,10,18,17,09,12.00
2020,10,18,17,10,12.00
2020,10,18,17,11,12.00
2020,10,18,17,12,12.00
2020,10,18,17,13,11.90
2020,10,18,17,14,11.90
2020,10,18,17,15,11.90
2020,10,18,17,16,11.90
2020,10,18,17,17,11.90
2020,10,18,17,18,11.90
2020,10,18,17,19,11.90
2020,10,18,17,20,11.90
2020,10,18,17,21,11.90
2020,10,18,17,22,11.90
2020,10,18,17,23,11.90
2020,10,18,17,24,11.90
2020,10,18,17,25,11.90
2020,10,18,17,26,11.90
2020,10,18,17,27,11.90
2020,10,18,17,28,11.90
2020,10,18,17,29,11.90
2020,10,18,17,30,11.90
